Wind_Speed
34 34 33 36 38 40 41 41 41 42 43 45 46 52 57 59 60 60 61 63 63 63 64 63 62 61 56 53 52 51 51 55 59 61 64 66 69 71 72 73 76 77 76 73
39 39 39 42 44 45 45 45 46 48 48 48 51 52 58 61 63 64 66 68 69 70 69 67 65 64 61 56 54 53 56 59 62 64 68 71 73 74 76 79 80 80 79 76
44 44 46 48 49 50 50 50 52 52 54 55 56 52 59 64 70 70 73 75 74 75 76 75 69 66 65 59 55 57 61 63 65 69 73 76 77 79 80 81 81 82 83 80
49 50 51 53 54 54 57 58 59 59 59 58 64 54 59 65 73 74 77 79 81 81 81 80 73 69 65 61 60 62 66 68 70 74 79 81 82 83 85 87 85 86 85 83
53 54 55 57 59 61 62 64 65 65 65 64 66 66 63 69 73 76 78 81 81 82 81 77 73 70 64 64 65 68 71 74 77 80 84 86 88 90 90 90 90 89 85 80
58 58 60 62 65 67 69 71 71 70 71 68 71 72 68 77 79 82 82 81 79 75 75 70 67 64 63 66 69 73 76 81 83 85 88 90 91 93 93 93 91 87 80 75
62 64 65 67 70 72 75 77 78 76 76 76 77 76 78 82 85 86 86 81 76 71 68 69 71 70 72 73 75 80 84 86 88 90 93 94 96 96 95 93 86 80 76 76
68 68 73 73 75 78 80 84 87 87 84 81 83 83 85 86 89 89 84 79 73 72 73 74 75 76 79 81 82 85 88 89 92 94 96 98 98 95 93 87 81 80 79 78
75 74 77 78 81 85 87 89 91 95 93 90 88 90 90 91 88 85 81 80 80 80 79 81 84 85 86 88 89 89 92 95 96 98 101 99 95 92 87 85 85 85 84 81
83 81 81 84 86 90 93 94 96 99 100 98 95 94 94 91 85 83 82 83 84 86 88 91 93 93 95 96 97 97 98 99 100 100 99 95 91 89 88 88 87 87 86 85
91 90 86 89 91 95 98 100 103 105 105 106 103 95 88 88 87 85 85 88 90 93 94 96 97 98 99 101 102 103 102 100 99 96 96 94 90 90 91 90 90 91 89 88
96 96 93 94 96 99 103 104 107 108 107 105 100 85 86 91 91 91 93 95 97 97 99 100 101 104 107 107 106 104 103 99 97 95 96 96 96 97 97 97 95 94 91 89
99 102 100 97 97 97 96 95 95 96 97 92 95 92 96 99 99 99 101 103 103 104 105 106 108 108 108 107 105 102 101 100 100 101 102 102 102 102 102 100 99 96 95 93
102 96 93 91 89 91 91 92 93 95 98 102 101 105 104 107 108 108 108 108 109 110 111 113 111 109 106 103 106 108 106 105 104 105 107 108 107 107 107 104 102 99 96 95
97 96 98 97 98 102 102 99 101 105 106 112 106 112 112 111 112 112 112 112 113 114 114 112 109 108 108 109 111 108 107 108 110 110 109 109 108 108 107 105 103 101 100 100
103 104 107 105 109 114 115 106 107 109 112 114 113 111 114 114 114 115 116 115 113 113 112 110 110 113 112 115 117 114 114 117 117 113 113 114 112 111 109 108 107 106 104 103
112 114 117 117 118 122 118 108 113 113 113 117 118 116 115 117 120 119 118 117 116 116 116 116 117 119 120 120 118 118 120 120 121 121 117 116 114 112 110 108 107 106 105 104
119 121 125 127 123 129 116 114 112 113 113 116 117 119 121 122 121 120 119 119 119 120 123 122 123 124 123 123 122 124 124 123 123 124 121 118 116 115 113 111 110 110 110 109
123 127 128 130 130 127 122 118 119 120 120 120 120 123 123 123 123 122 123 124 124 127 127 127 128 125 128 127 128 128 125 125 124 123 123 123 120 119 119 117 115 114 110 107
124 128 131 133 135 136 128 123 124 122 125 121 125 127 127 127 127 129 130 130 131 128 130 130 128 129 128 129 130 129 128 129 126 123 123 121 120 119 117 116 112 107 103 99
126 126 128 126 127 128 127 127 127 129 127 129 132 133 134 131 133 136 136 135 133 132 131 132 134 136 138 134 135 132 127 125 126 124 121 119 116 111 107 104 101 98 95 92
124 125 124 123 127 131 132 133 132 134 136 137 138 139 140 139 137 137 137 135 136 137 139 139 137 137 134 130 127 125 124 123 120 119 114 109 106 102 97 94 92 89 87 86
136 137 137 133 134 135 135 137 136 138 141 145 145 143 143 142 141 140 141 139 140 139 139 140 137 133 129 127 125 121 118 113 109 105 102 100 98 95 92 88 86 84 83 82
141 142 144 142 141 141 140 138 138 140 143 146 147 145 144 143 142 141 140 140 138 137 135 133 132 133 131 125 119 113 107 103 102 100 98 94 92 90 87 84 82 81 81 80
142 141 142 143 141 140 141 141 139 140 143 144 144 144 141 138 135 133 131 131 131 131 131 129 126 123 117 110 107 103 99 96 94 93 91 89 86 85 83 83 82 80 79 78
130 132 132 133 133 133 133 133 133 134 135 137 137 137 137 135 133 130 129 127 124 122 118 116 114 109 107 104 101 98 94 92 90 88 86 84 83 83 81 80 81 82 79 79
Wind_Direction
287 289 290 293 295 298 298 299 302 303 304 306 309 307 310 312 310 310 313 314 315 314 315 315 315 317 312 307 307 305 303 302 303 306 308 306 306 308 311 311 312 313 315 316
285 287 288 291 294 296 296 299 300 300 302 304 306 306 306 309 306 308 310 311 311 312 313 313 313 313 312 305 305 303 300 303 304 305 305 305 306 308 309 310 311 314 315 315
284 286 287 289 291 293 294 296 298 300 302 304 304 306 305 308 305 308 308 309 309 309 310 310 310 309 309 305 300 297 301 302 302 303 304 305 305 307 308 309 311 312 313 315
285 286 287 289 290 291 293 295 296 299 300 302 301 305 301 304 302 307 307 308 307 307 307 308 307 306 305 299 296 297 300 302 302 302 303 304 305 306 306 308 311 311 311 315
283 286 287 289 290 291 292 294 296 298 299 301 299 303 303 301 302 305 306 305 306 307 306 306 304 304 302 299 296 298 299 300 301 302 302 303 304 306 307 308 308 309 310 311
283 285 287 288 290 292 293 294 295 296 298 299 299 302 304 300 302 303 304 304 306 305 304 306 306 306 303 299 297 297 298 300 301 301 302 303 304 305 306 307 308 309 307 306
283 284 285 288 290 291 292 293 293 295 296 297 298 300 300 301 302 302 303 304 304 303 304 304 304 303 302 301 299 300 300 300 301 301 302 303 304 304 305 307 306 306 305 305
282 285 287 288 290 291 292 292 294 295 294 297 299 299 299 301 301 301 300 300 299 299 301 302 302 301 301 300 300 300 300 300 301 301 301 302 303 304 305 305 303 303 303 303
281 283 286 288 289 291 290 293 294 294 295 297 297 297 300 301 300 298 297 297 298 299 301 301 302 303 302 302 302 301 301 301 300 299 300 302 303 304 303 302 303 304 304 303
283 283 286 287 289 289 290 291 291 292 294 295 296 298 299 298 295 294 294 295 297 299 300 301 302 303 303 303 303 302 301 300 300 301 301 301 303 303 303 303 303 303 302 301
283 285 286 287 286 288 289 289 290 291 294 295 295 298 296 292 293 294 295 297 298 299 301 301 302 303 303 303 302 302 303 302 301 300 301 301 302 305 305 304 303 302 301 299
282 284 285 285 286 286 286 289 289 290 292 294 295 297 292 294 295 295 296 297 298 299 299 300 301 302 303 303 302 301 301 301 302 302 302 303 304 305 304 304 303 302 301 299
282 283 285 286 286 286 287 288 289 291 292 296 293 295 293 294 295 297 297 297 298 298 299 300 301 301 302 302 303 304 303 303 303 304 304 305 304 305 304 304 304 303 300 298
282 284 286 287 285 285 287 288 290 290 291 290 293 293 295 294 296 296 296 297 298 298 299 300 300 300 302 303 304 304 303 302 302 303 303 303 303 303 303 302 302 302 301 298
281 283 285 286 286 286 286 287 289 289 288 289 292 293 293 294 294 296 297 296 295 296 298 299 299 301 301 302 304 303 303 303 303 302 302 302 301 300 300 300 301 300 299 298
283 284 284 285 288 287 286 290 290 289 291 291 291 292 291 293 294 294 294 295 297 297 298 298 299 300 301 302 302 302 301 302 303 302 302 302 302 303 302 302 302 300 298 296
284 286 286 286 287 286 289 290 287 289 289 289 290 290 290 291 293 294 295 296 296 297 297 297 298 300 300 300 301 302 302 302 303 304 304 303 303 302 301 300 299 297 296 296
284 285 285 286 285 286 288 287 285 284 285 286 287 288 289 290 291 293 293 294 294 295 296 296 298 300 300 300 299 300 302 303 304 303 303 302 301 301 300 299 299 298 297 295
283 283 284 284 285 286 287 283 283 284 284 285 287 287 287 289 290 291 292 293 294 295 295 296 297 297 298 300 301 302 302 302 302 303 302 302 302 301 301 299 298 296 295 293
279 281 281 283 283 285 286 286 285 285 284 286 286 286 287 288 289 289 291 291 292 293 294 295 296 297 299 301 301 302 302 302 302 299 299 299 298 298 298 296 294 293 292 291
278 278 280 281 283 284 284 284 284 284 286 285 285 286 287 289 289 289 289 290 291 293 295 297 299 301 301 302 302 302 300 300 298 298 297 296 295 294 292 292 292 291 291 290
277 276 277 277 280 281 282 283 285 286 285 286 287 288 289 290 291 291 292 294 296 297 297 298 298 298 299 298 298 297 296 296 295 294 294 294 294 293 293 292 292 291 290 289
277 277 276 275 276 278 279 280 280 281 283 284 287 288 288 288 290 291 292 293 293 293 295 296 297 297 298 298 297 297 295 295 295 295 295 295 295 295 294 293 292 291 290 289
276 276 275 277 278 278 278 278 279 281 283 284 284 286 287 288 288 288 289 290 292 294 294 296 296 296 296 296 295 295 296 296 296 295 295 295 295 294 294 293 292 290 289 288
275 276 276 278 279 280 279 280 281 281 282 282 284 285 287 288 289 290 291 292 293 294 295 294 294 295 295 296 297 296 296 296 295 296 295 294 294 294 293 292 290 289 289 287
272 274 275 276 276 277 278 278 278 279 280 283 285 286 286 288 289 291 292 294 295 295 294 295 295 296 297 297 297 296 296 297 296 295 295 295 294 294 293 292 292 291 288 287
Height
10750 10749 10747 10745 10743 10740 10737 10734 10732 10729 10726 10722 10719 10710 10701 10697 10692 10689 10686 10681 10676 10672 10666 10660 10652 10646 10641 10637 10633 10628 10623 10617 10611 10606 10600 10593 10587 10582 10576 10571 10565 10559 10553 10547
10742 10741 10739 10736 10734 10731 10728 10726 10724 10720 10718 10716 10710 10706 10695 10690 10682 10680 10675 10670 10664 10657 10653 10647 10641 10634 10629 10625 10621 10616 10610 10605 10599 10593 10586 10580 10573 10566 10561 10555 10549 10542 10536 10530
10733 10732 10729 10726 10724 10722 10717 10716 10713 10712 10709 10704 10702 10703 10689 10680 10668 10667 10661 10655 10650 10644 10638 10634 10629 10623 10618 10613 10608 10603 10596 10592 10585 10578 10571 10564 10557 10550 10544 10540 10533 10524 10518 10511
10723 10721 10719 10715 10712 10711 10705 10702 10701 10700 10699 10697 10685 10698 10683 10674 10659 10657 10649 10640 10633 10627 10621 10618 10614 10610 10604 10599 10594 10589 10583 10577 10571 10563 10554 10547 10539 10533 10527 10522 10515 10508 10500 10492
10713 10711 10707 10702 10699 10696 10694 10690 10687 10686 10683 10683 10674 10674 10676 10663 10654 10646 10639 10628 10620 10613 10606 10601 10596 10592 10587 10583 10579 10574 10568 10561 10554 10546 10538 10530 10522 10514 10507 10501 10496 10489 10480 10473
10700 10699 10694 10690 10686 10681 10678 10674 10672 10672 10668 10669 10662 10659 10665 10646 10641 10631 10624 10615 10610 10603 10593 10587 10581 10577 10572 10568 10562 10557 10550 10544 10536 10527 10518 10511 10504 10495 10487 10481 10474 10467 10459 10453
10688 10685 10682 10678 10673 10667 10662 10656 10653 10657 10653 10651 10648 10648 10642 10631 10622 10614 10607 10601 10596 10589 10582 10575 10568 10563 10557 10551 10545 10538 10531 10523 10515 10508 10499 10491 10483 10475 10467 10458 10450 10444 10438 10433
10675 10674 10665 10663 10658 10651 10646 10638 10631 10630 10634 10639 10632 10628 10624 10616 10604 10596 10591 10586 10580 10574 10567 10561 10555 10549 10544 10538 10532 10523 10514 10505 10496 10487 10478 10470 10462 10453 10444 10436 10428 10422 10416 10411
10660 10663 10656 10650 10643 10636 10630 10624 10616 10603 10608 10613 10615 10608 10603 10594 10584 10576 10572 10566 10560 10555 10549 10542 10535 10530 10524 10517 10511 10504 10495 10485 10476 10467 10457 10449 10439 10430 10421 10413 10405 10398 10392 10386
10640 10642 10644 10634 10629 10618 10611 10606 10597 10587 10584 10588 10593 10591 10580 10575 10566 10560 10555 10548 10543 10537 10529 10521 10514 10509 10502 10493 10486 10479 10471 10462 10453 10442 10431 10423 10414 10406 10398 10389 10382 10376 10369 10363
10617 10620 10627 10620 10611 10601 10591 10584 10575 10568 10565 10556 10563 10574 10558 10548 10545 10541 10535 10529 10521 10514 10507 10499 10490 10483 10477 10469 10463 10455 10445 10434 10425 10416 10407 10399 10390 10382 10373 10365 10358 10351 10345 10339
10598 10598 10603 10601 10593 10584 10573 10568 10557 10548 10546 10541 10532 10552 10532 10524 10521 10519 10514 10507 10501 10495 10486 10478 10470 10461 10452 10442 10435 10428 10419 10410 10398 10389 10380 10372 10363 10355 10347 10339 10331 10324 10316 10309
10581 10575 10577 10580 10573 10561 10556 10549 10539 10530 10521 10524 10507 10518 10508 10502 10499 10495 10486 10481 10475 10468 10460 10452 10444 10434 10424 10415 10406 10399 10391 10383 10373 10364 10353 10344 10335 10327 10318 10309 10301 10295 10286 10279
10552 10556 10550 10554 10545 10538 10535 10530 10524 10516 10507 10494 10501 10486 10481 10472 10469 10464 10461 10455 10446 10438 10430 10423 10416 10407 10397 10388 10379 10371 10364 10357 10349 10340 10329 10319 10309 10300 10290 10281 10273 10264 10256 10249
10529 10534 10524 10526 10521 10510 10510 10513 10503 10495 10488 10469 10484 10461 10452 10451 10443 10436 10432 10426 10420 10412 10404 10396 10387 10379 10370 10363 10354 10344 10334 10327 10321 10313 10303 10294 10284 10275 10264 10252 10242 10234 10225 10217
10511 10508 10500 10506 10493 10480 10477 10497 10476 10464 10457 10443 10441 10447 10424 10419 10415 10411 10405 10399 10392 10384 10376 10368 10359 10351 10344 10334 10325 10318 10308 10297 10286 10280 10270 10259 10247 10236 10226 10216 10208 10200 10192 10184
10486 10479 10471 10471 10466 10451 10462 10471 10445 10439 10430 10415 10411 10408 10404 10397 10389 10381 10374 10367 10360 10354 10348 10339 10332 10324 10316 10306 10296 10286 10277 10267 10254 10241 10233 10225 10215 10205 10196 10187 10178 10168 10158 10148
10461 10454 10439 10431 10434 10422 10447 10439 10424 10412 10407 10392 10385 10380 10373 10365 10361 10355 10348 10341 10333 10327 10320 10311 10303 10294 10284 10277 10268 10257 10246 10233 10222 10209 10199 10190 10180 10170 10161 10151 10139 10129 10120 10112
10433 10418 10406 10395 10393 10397 10413 10404 10394 10386 10380 10371 10360 10349 10346 10342 10335 10328 10319 10310 10302 10293 10287 10280 10273 10264 10255 10243 10231 10221 10211 10200 10189 10175 10162 10150 10140 10130 10121 10113 10103 10092 10085 10075
10406 10389 10376 10371 10362 10357 10366 10365 10356 10350 10340 10341 10326 10320 10315 10310 10305 10298 10289 10281 10274 10267 10256 10246 10237 10229 10217 10208 10197 10185 10172 10162 10154 10145 10132 10119 10110 10101 10091 10081 10070 10059 10051 10043
10381 10373 10356 10349 10336 10327 10324 10322 10318 10310 10309 10300 10294 10289 10283 10280 10270 10261 10253 10244 10239 10232 10223 10211 10199 10188 10177 10168 10159 10150 10140 10130 10119 10107 10096 10087 10078 10069 10059 10049 10038 10028 10019 10011
10343 10335 10336 10328 10315 10304 10298 10287 10283 10270 10263 10257 10254 10250 10243 10236 10230 10220 10211 10202 10193 10185 10179 10173 10165 10157 10147 10142 10131 10120 10110 10099 10086 10074 10064 10053 10042 10032 10024 10016 10005 9997 9989 9981
10301 10295 10291 10291 10285 10280 10274 10261 10257 10246 10234 10223 10221 10214 10206 10201 10192 10184 10179 10174 10166 10160 10151 10141 10131 10119 10106 10101 10092 10083 10072 10060 10048 10036 10025 10016 10006 9996 9988 9983 9975 9967 9958 9952
10264 10256 10247 10249 10249 10241 10234 10230 10223 10216 10205 10194 10186 10179 10174 10167 10161 10154 10148 10140 10131 10123 10114 10103 10092 10081 10070 10062 10053 10045 10034 10024 10011 10002 9992 9982 9974 9964 9957 9951 9944 9939 9930 9924
10217 10218 10212 10206 10203 10201 10194 10189 10189 10181 10169 10161 10153 10146 10140 10134 10127 10118 10110 10104 10095 10086 10077 10067 10056 10045 10034 10026 10014 10007 9999 9990 9980 9971 9962 9953 9945 9936 9930 9922 9914 9909 9904 9899
10188 10180 10178 10176 10173 10167 10163 10158 10153 10146 10137 10128 10121 10113 10105 10097 10090 10084 10075 10067 10061 10052 10041 10030 10020 10010 10001 9992 9979 9972 9965 9956 9951 9942 9933 9924 9917 9908 9902 9895 9887 9877 9876 9870